[[{"header":{"parameterUnit":"m.s-1","parameterCategory":1,"la1":30.2991,"la2":30.254,"lo1":-89.0895,"lo2":-89.0444,"dy":0.0017,"dx":0.0017,"nx":28,"ny":28,"refTime":"2024-07-27T21:00:00:Z","depth":0,"parameterNumber":2,"parameterNumberName":"U-component_of_WINDS"},"data":[0,0,0,0,0,0,0,0,0,0,0,0,0,0,0,0,0,0,0,0,0,0,0,0,0,0,0,0,0,0,0,0,0,0,0,0,0,0,0,0,0,0,0,0,0,0,0,0,0,0,0,0,0,0,0,0,0,0,-0.2922,-0.2921,0,-0.2802,-0.28,-0.2799,-0.274,-0.274,-0.274,-0.274,-0.2617,-0.2614,-0.2611,0,0,0,0,0,0,0,0,0,0,0,0,0,-0.3102,-0.3099,-0.2922,-0.292,-0.2919,-0.2802,-0.28,-0.2798,-0.274,-0.274,-0.274,-0.274,-0.2618,-0.2614,-0.261,0,0,0,0,0,0,0,0,0,0,0,0,0,-0.3007,-0.3098,-0.2922,-0.2876,-0.287,-0.2802,-0.28,-0.2798,-0.274,-0.274,-0.274,-0.274,-0.2619,-0.2615,-0.261,-0.2579,0,0,-0.2595,-0.2593,0,0,0,0,0,0,0,0,-0.3013,-0.3001,-0.2884,-0.2879,-0.2872,-0.2786,-0.2818,-0.2725,-0.274,-0.2789,-0.274,-0.274,-0.2673,-0.2664,-0.2641,-0.2573,-0.2568,-0.2594,-0.2591,-0.2589,-0.2588,0,0,0,0,0,0,0,-0.3019,-0.3005,-0.2874,-0.2882,-0.2875,-0.2861,-0.2847,-0.28,-0.2733,-0.2785,-0.278,-0.2767,-0.267,-0.2646,-0.2638,-0.2566,-0.2594,-0.259,-0.2587,-0.2585,-0.2468,-0.2467,0,0,0,0,0,0,-0.3033,-0.3011,-0.2878,-0.2871,-0.2944,-0.2858,-0.2843,-0.2814,-0.2733,-0.2721,-0.2767,-0.2765,-0.2654,-0.2644,-0.2633,-0.2592,-0.2589,-0.2585,-0.2582,-0.2468,-0.2468,-0.2467,0,0,0,0,0,0,-0.3037,-0.3022,-0.2883,-0.294,-0.2921,-0.2855,-0.2822,-0.2811,-0.2787,-0.2719,-0.2707,-0.2755,-0.2654,-0.264,-0.2593,-0.2587,-0.2582,-0.2578,-0.2468,-0.2468,-0.2467,-0.251,0,0,0,0,0,0,-0.3043,-0.3024,-0.3011,-0.294,-0.2918,-0.2845,-0.2822,-0.2809,-0.2779,-0.2774,-0.2705,-0.2693,-0.2653,-0.2601,-0.2588,-0.258,-0.2574,-0.2468,-0.2468,-0.2468,-0.2509,-0.2511,-0.2513,0,0,0,0,0,-0.3049,-0.3028,-0.3011,-0.2995,-0.2901,-0.2844,-0.2832,-0.2786,-0.2779,-0.2765,-0.2722,-0.2695,-0.259,-0.2596,-0.2582,-0.2572,-0.2468,-0.2468,-0.2468,-0.2508,-0.2511,-0.2513,0,0,0,0,0,0,-0.31,-0.3018,-0.2998,-0.2952,-0.2906,-0.2835,-0.2816,-0.279,-0.2745,-0.2743,-0.2688,-0.2673,-0.2631,-0.2597,-0.2605,-0.2539,-0.2527,-0.2523,-0.2562,-0.2564,-0.2567,-0.2575,-0.257,0,0,0,0,0,-0.3106,-0.3067,-0.2997,-0.2964,-0.2941,-0.2883,-0.2857,-0.2826,-0.2775,-0.2755,-0.2708,-0.266,-0.2616,-0.2589,-0.2544,-0.2504,-0.2488,-0.249,-0.2492,-0.2495,-0.2492,-0.2469,-0.2469,-0.2466,-0.2466,-0.2466,0,0,-0.3118,-0.3068,-0.3047,-0.2973,-0.2933,-0.2894,-0.2867,-0.2827,-0.2797,-0.2749,-0.2701,-0.2666,-0.2609,-0.2565,-0.2543,-0.2535,-0.249,-0.2494,-0.2496,-0.2493,-0.2468,-0.2469,-0.2469,-0.2466,-0.2466,-0.2466,0,0,-0.312,-0.3078,-0.3046,-0.3007,-0.2947,-0.2908,-0.2901,-0.2833,-0.2807,-0.2759,-0.2722,-0.2686,-0.2612,-0.2573,-0.2543,-0.2531,-0.2505,-0.2518,-0.253,-0.2507,-0.2508,-0.2508,-0.2503,-0.2502,-0.2516,-0.2517,-0.2517,0,-0.3142,-0.3081,-0.3033,-0.2994,-0.2963,-0.2918,-0.2885,-0.2849,-0.2778,-0.2758,-0.275,-0.2656,-0.2615,-0.2561,-0.2558,-0.2536,-0.2526,-0.2526,-0.2512,-0.2511,-0.251,-0.2505,-0.2504,-0.2518,-0.2518,-0.2518,-0.2518,0,-0.3112,-0.307,-0.3052,-0.2984,-0.2951,-0.2915,-0.2862,-0.2834,-0.2806,-0.2769,-0.272,-0.2669,-0.2614,-0.2599,-0.2571,-0.2542,-0.2539,-0.2522,-0.2509,-0.2513,-0.2508,-0.2506,-0.2521,-0.2521,-0.252,-0.252,0,0,-0.3141,-0.3048,-0.3042,-0.3011,-0.2941,-0.2909,-0.2872,-0.2818,-0.2795,-0.2748,-0.2716,-0.2654,-0.2638,-0.2605,-0.2572,-0.2553,-0.2547,-0.2538,-0.2536,-0.2542,-0.2511,-0.2524,-0.2523,-0.2529,-0.2529,-0.2528,-0.2516,0,-0.3133,-0.3064,-0.302,-0.2969,-0.293,-0.2887,-0.2855,-0.2809,-0.2774,-0.2736,-0.2696,-0.2654,-0.2636,-0.2616,-0.2594,-0.2552,-0.254,-0.2552,-0.2499,-0.2497,-0.2514,-0.252,-0.2533,-0.2524,-0.2514,-0.2513,-0.2513,0,-0.3114,-0.3068,-0.3013,-0.2949,-0.2931,-0.2903,-0.285,-0.2814,-0.2762,-0.2737,-0.2701,-0.2668,-0.2627,-0.2618,-0.2562,-0.2571,-0.2547,-0.2523,-0.2521,-0.2514,-0.2505,-0.2513,-0.252,-0.2519,-0.2509,-0.2509,-0.251,0,-0.3141,-0.3065,-0.3023,-0.2997,-0.2921,-0.2903,-0.287,-0.2818,-0.2788,-0.2742,-0.2723,-0.2673,-0.2646,-0.2608,-0.2563,-0.256,-0.2511,-0.2498,-0.249,-0.2491,-0.2481,-0.2482,-0.2484,-0.2466,-0.2466,-0.2466,-0.2466,0,-0.3136,-0.3104,-0.3034,-0.3008,-0.2971,-0.2921,-0.2886,-0.285,-0.2804,-0.277,-0.273,-0.2699,-0.2642,-0.2604,-0.2568,-0.2527,-0.2515,-0.2495,-0.2485,-0.2498,-0.2501,-0.2481,-0.248,-0.2466,-0.2466,-0.2466,-0.2466,0,-0.316,-0.3111,-0.3062,-0.2994,-0.2976,-0.2952,-0.2894,-0.2868,-0.283,-0.2788,-0.2775,-0.2717,-0.267,-0.2622,-0.2559,-0.2535,-0.2495,-0.2483,-0.2513,-0.2508,-0.2502,-0.2503,-0.2491,-0.2487,-0.2473,-0.2473,-0.2473,0,-0.316,-0.3134,-0.3064,-0.3038,-0.3007,-0.2966,-0.2936,-0.2886,-0.2856,-0.2795,-0.2776,-0.2727,-0.2684,-0.2613,-0.2565,-0.2517,-0.2502,-0.2501,-0.2495,-0.2508,-0.2502,-0.2504,-0.2501,-0.2504,-0.2504,-0.2504,-0.2505,0,-0.3165,-0.3143,-0.31,-0.305,-0.3015,-0.2973,-0.2929,-0.2911,-0.2852,-0.2821,-0.2773,-0.2741,-0.2677,-0.2628,-0.2575,-0.2541,-0.2513,-0.2507,-0.2503,-0.2515,-0.2534,-0.2523,-0.2519,-0.2507,-0.2507,-0.2507,-0.2507,-0.2507,-0.3177,-0.3152,-0.3099,-0.3053,-0.3015,-0.2976,-0.2947,-0.2906,-0.2865,-0.2809,-0.2782,-0.2735,-0.2684,-0.2609,-0.2576,-0.2538,-0.253,-0.2524,-0.2522,-0.2521,-0.2524,-0.254,-0.2529,-0.2528,-0.2528,-0.2528,-0.2528,0,-0.318,-0.3144,-0.3102,-0.3042,-0.3007,-0.2984,-0.2934,-0.2906,-0.2865,-0.2819,-0.2779,-0.2724,-0.2678,-0.2626,-0.2576,-0.2556,-0.2542,-0.2545,-0.2545,-0.2538,-0.2534,-0.2543,-0.2557,-0.2557,-0.2557,-0.2557,-0.2557,-0.2557,-0.3177,-0.3135,-0.3106,-0.3044,-0.3008,-0.2961,-0.2935,-0.2898,-0.2862,-0.2802,-0.2763,-0.273,-0.2682,-0.2629,-0.2585,-0.2571,-0.2555,-0.2561,-0.2544,-0.2541,-0.2539,-0.2536,-0.2544,-0.2558,-0.2558,-0.255,-0.255,-0.255]},{"header":{"parameterUnit":"m.s-1","parameterCategory":1,"la1":30.2991,"la2":30.254,"lo1":-89.0895,"lo2":-89.0444,"dy":0.0017,"dx":0.0017,"nx":28,"ny":28,"refTime":"2024-07-27T21:00:00:Z","depth":0,"parameterNumber":3,"parameterNumberName":"V-component_of_WINDS"},"data":[0,0,0,0,0,0,0,0,0,0,0,0,0,0,0,0,0,0,0,0,0,0,0,0,0,0,0,0,0,0,0,0,0,0,0,0,0,0,0,0,0,0,0,0,0,0,0,0,0,0,0,0,0,0,0,0,0,0,3.948,3.948,0,3.9472,3.9472,3.9472,3.9423,3.9422,3.9421,3.942,3.9412,3.9413,3.9413,0,0,0,0,0,0,0,0,0,0,0,0,0,3.9455,3.9455,3.948,3.948,3.948,3.9472,3.9472,3.9472,3.9423,3.9422,3.9421,3.9419,3.9411,3.9412,3.9414,0,0,0,0,0,0,0,0,0,0,0,0,0,3.9458,3.9456,3.948,3.9455,3.9453,3.9472,3.9472,3.9472,3.9424,3.9422,3.942,3.9418,3.9411,3.9412,3.9414,3.9457,0,0,3.9418,3.9418,0,0,0,0,0,0,0,0,3.9458,3.9459,3.9459,3.9457,3.9454,3.9447,3.946,3.9467,3.9424,3.9435,3.942,3.9418,3.9425,3.9425,3.9427,3.9457,3.9456,3.9418,3.9419,3.9419,3.942,0,0,0,0,0,0,0,3.9458,3.9459,3.9477,3.9459,3.9456,3.9444,3.9443,3.9461,3.944,3.9434,3.943,3.943,3.9423,3.9426,3.9427,3.9456,3.9418,3.9419,3.942,3.942,3.9522,3.9524,0,0,0,0,0,0,3.9461,3.9459,3.9477,3.9477,3.9452,3.9446,3.9444,3.9451,3.9439,3.9436,3.9431,3.9427,3.9425,3.9425,3.9426,3.9477,3.9419,3.942,3.9421,3.952,3.9522,3.9524,0,0,0,0,0,0,3.9461,3.9463,3.9478,3.9467,3.9468,3.9448,3.9456,3.9452,3.9455,3.9438,3.9434,3.9438,3.9423,3.9424,3.945,3.9476,3.9421,3.9422,3.9518,3.9521,3.9523,3.9578,0,0,0,0,0,0,3.946,3.9463,3.9479,3.9468,3.9469,3.9501,3.9458,3.9453,3.9457,3.9452,3.9443,3.944,3.9422,3.9448,3.9451,3.9477,3.9423,3.9515,3.9519,3.9522,3.9574,3.9583,3.959,0,0,0,0,0,3.9459,3.9495,3.948,3.9483,3.9489,3.9503,3.9504,3.9482,3.9459,3.9475,3.9465,3.944,3.9473,3.9451,3.9454,3.9481,3.9514,3.9518,3.9522,3.957,3.9581,3.959,0,0,0,0,0,0,3.951,3.9493,3.9477,3.951,3.9508,3.9495,3.9514,3.9494,3.9499,3.9494,3.9468,3.9466,3.9496,3.9491,3.9467,3.9522,3.9489,3.9494,3.9525,3.9534,3.9542,3.9543,3.9424,0,0,0,0,0,3.9525,3.9538,3.9523,3.9553,3.9553,3.9534,3.954,3.9524,3.9521,3.952,3.9511,3.951,3.952,3.9527,3.9535,3.9573,3.9571,3.9593,3.9601,3.9607,3.9612,3.9632,3.9642,3.9538,3.9538,3.9538,0,0,3.9556,3.9549,3.9558,3.9563,3.956,3.9575,3.9534,3.9551,3.9561,3.9523,3.9546,3.954,3.9537,3.9569,3.9583,3.9565,3.964,3.9613,3.9618,3.9619,3.9638,3.9648,3.9656,3.9541,3.9541,3.954,0,0,3.962,3.9616,3.9641,3.9639,3.9635,3.9622,3.9628,3.9618,3.9612,3.9636,3.9607,3.962,3.9637,3.9636,3.9638,3.9703,3.968,3.9706,3.9748,3.9768,3.9776,3.9783,3.9807,3.9815,3.9711,3.9711,3.9711,0,3.966,3.968,3.9657,3.9676,3.9679,3.9645,3.967,3.9669,3.9668,3.9672,3.9652,3.9674,3.9669,3.9701,3.9717,3.9719,3.9726,3.9707,3.9777,3.9784,3.979,3.9812,3.9821,3.9714,3.9714,3.9713,3.9713,0,3.9729,3.9744,3.9764,3.9764,3.977,3.9792,3.9773,3.9781,3.9765,3.9754,3.9779,3.9772,3.9778,3.9785,3.9769,3.9815,3.9804,3.9781,3.9747,3.9803,3.9824,3.9832,3.9719,3.9717,3.9717,3.9716,0,0,3.9824,3.9812,3.982,3.982,3.9813,3.9824,3.9845,3.9851,3.9859,3.986,3.9877,3.9893,3.9872,3.9874,3.9858,3.9875,3.9928,3.985,3.985,3.9865,3.9978,3.9996,4.0006,3.9913,3.9915,3.9916,3.9979,0,3.9886,3.9921,3.9901,3.9939,3.9952,3.992,3.9939,3.9937,3.9928,3.9938,3.9928,3.994,3.9911,3.9912,3.9928,3.9918,3.995,3.9913,3.9929,3.993,3.9931,4.0016,4.0035,4.0094,3.9986,3.9988,3.9989,0,3.9963,3.9967,4.0006,3.9998,4.0003,4.0019,4.0024,4.0034,4.0032,4.0024,4.0026,4.0006,4.0026,3.9993,4.0021,3.9996,4.0001,3.9997,3.9999,4.0,3.9963,4.002,4.0113,4.0122,4.0001,4.0,3.9999,0,4.0029,4.0044,4.007,4.0071,4.0061,4.0074,4.0071,4.0066,4.0072,4.0076,4.0079,4.0085,4.0089,4.0095,4.0077,4.0054,4.0107,4.0072,4.0101,4.0102,4.0114,4.0113,4.021,4.0117,4.0117,4.0117,4.0117,0,4.01,4.0126,4.01,4.0116,4.0143,4.012,4.0148,4.0142,4.0138,4.0152,4.0125,4.0139,4.0114,4.0126,4.0112,4.0137,4.0139,4.0134,4.013,4.0136,4.0137,4.0139,4.0135,4.0119,4.0119,4.0118,4.0118,0,4.0179,4.0162,4.0188,4.0177,4.0175,4.0196,4.0187,4.0201,4.019,4.0209,4.0212,4.0195,4.0207,4.019,4.02,4.0191,4.0226,4.0215,4.0227,4.0224,4.0254,4.0252,4.0355,4.0368,4.0268,4.0269,4.0269,0,4.0225,4.0244,4.0236,4.0243,4.0241,4.0254,4.0259,4.0237,4.0244,4.0243,4.0258,4.0268,4.0274,4.0296,4.0284,4.0292,4.0282,4.0318,4.0283,4.0289,4.0283,4.0282,4.0284,4.0325,4.0326,4.0327,4.0328,0,4.031,4.0301,4.031,4.0316,4.0323,4.0327,4.0329,4.0337,4.0314,4.0323,4.0335,4.0341,4.0351,4.0362,4.0367,4.0364,4.0343,4.0339,4.0346,4.0353,4.0359,4.0357,4.0246,4.0337,4.0336,4.0335,4.0335,4.0334,4.0374,4.039,4.0386,4.0397,4.0396,4.0398,4.0412,4.0403,4.0412,4.0419,4.0406,4.0422,4.0419,4.0424,4.0423,4.0435,4.042,4.043,4.0433,4.0436,4.0441,4.0357,4.0436,4.0436,4.0436,4.0435,4.0435,0,4.0457,4.0454,4.0464,4.0468,4.0476,4.0455,4.0457,4.0465,4.0479,4.0479,4.0486,4.0501,4.0511,4.0501,4.0509,4.0521,4.0511,4.0524,4.0523,4.0522,4.0454,4.0447,4.0531,4.0531,4.0531,4.0531,4.0531,4.0531,4.0502,4.0527,4.0518,4.0543,4.0539,4.0554,4.0557,4.0559,4.0558,4.0576,4.0584,4.0577,4.0573,4.0581,4.0589,4.0586,4.059,4.0606,4.06,4.0536,4.0527,4.0518,4.0511,4.0607,4.0608,4.0667,4.0667,4.0668]}]]